Regional Weather Roundup
Issued by NWS Northern Indiana

Home | Current Version | Previous Version | Graphics & Text | Print | Product List | Glossary On
Versions: 1 2 3 4 5 6 7 8 9 10 11 12 13 14 15 16 17 18 19 20 21 22 23 24 25 26 27 28 29 30 31 32 33 34 35 36 37 38 39 40 41 42 43 44 45 46 47 48 49 50
000
ASUS43 KIWX 292110
RWRIWX

KIWX WEATHER ROUNDUP
NATIONAL WEATHER SERVICE NORTHERN INDIANA
400 PM EST THU JAN 29 2015

NOTE: "FAIR" INDICATES FEW OR NO CLOUDS BELOW 12,000 FEET WITH NO
SIGNIFICANT WEATHER AND/OR OBSTRUCTIONS TO VISIBILITY.

* THESE STATIONS ARE NOT UNDER NWS QUALITY CONTROL. THEY ALSO MAY NOT
  REPORT WEATHER SUCH AS PRECIPITATION OR FOG.

INZ001>027-292200-
NORTHERN INDIANA

CITY           SKY/WX    TMP DP  RH WIND       PRES   REMARKS
GARY*          CLOUDY    36  25  64 NW12G23   30.02R
VALPARAISO     CLOUDY    33  26  75 NW18G26   29.99R WCI  22
MICHIGAN CITY* DRIZZLE   32  27  80 NW15G24   29.99R WCI  22
LAPORTE*       LGT RAIN  34  31  90 NW15G23   29.97R WCI  24
KNOX*          CLOUDY    32  25  74 NW14G21   29.97R WCI  22
SOUTH BEND     CLOUDY    33  29  85 NW17      29.95R FOG     WCI  22
ELKHART*       DRIZZLE   34  27  75 NW12G25   29.92R WCI  25
GOSHEN         CLOUDY    34  28  79 NW17G28   29.90R WCI  23
MONTICELLO*    CLOUDY    33  29  86 NW15      29.99R WCI  23
LOGANSPORT*    CLOUDY    32  28  86 NW12      29.99R WCI  23
ROCHESTER*     PTSUNNY   34  32  93 NW10G21   29.95R FOG     WCI  26
WARSAW*        CLOUDY    32  30  93 NW16G23   29.91R WCI  21
ANGOLA*        CLOUDY    34  28  80 NW12      29.84R WCI  25
FORT WAYNE     DRIZZLE   33  30  88 W17G25    29.89R FOG     WCI  22
HUNTINGTON*    CLOUDY    32  28  84 NW13G22   29.91R FOG     WCI  23
PERU/GRISSOM   CLOUDY    33  28  84 NW15G24   29.96R WCI  22
MARION*        CLOUDY    32  31  94 NW18G25   29.95R FOG     WCI  20

$$
INZ028>050-292200-
CENTRAL INDIANA

CITY           SKY/WX    TMP DP  RH WIND       PRES   REMARKS
LAFAYETTE      CLOUDY    34  27  75 NW16G25   30.02R WCI  24
KOKOMO*        CLOUDY    34  27  75 NW22      29.96R WCI  22
MUNCIE*        CLOUDY    33  30  88 NW20G28   29.93R FOG     WCI  21
INDIANAPOLIS   CLOUDY    32  29  88 W18G26    30.01R FOG     WCI  20

$$
MIZ043>046-050>051-056>058-064>065-071>073-077>080-292200-
SOUTHWEST LOWER MICHIGAN

CITY           SKY/WX    TMP DP  RH WIND       PRES   REMARKS
BATTLE CREEK   CLOUDY    33  27  78 NW15      29.87R HAZE    WCI  23
BENTON HARBOR  CLOUDY    32  30  92 NW12G23   29.95R FOG     WCI  23
COLDWATER*     CLOUDY    32  29  89 NW10      29.84R WCI  24
HILLSDALE*     LGT SNOW  33  31  93 NW13G22   29.81R WCI  24
HOLLAND        CLOUDY    35  27  72 NW16G22   29.92R WCI  25
GRAND RAPIDS   LGT SNOW  32  27  81 NW18      29.88R WCI  20
KALAMAZOO      CLOUDY    33  27  78 NW13G24   29.88R HAZE    WCI  24
STURGIS*       CLOUDY    32  28  86 NW10G23   29.87R WCI  24
THREE RIVERS*  CLOUDY    33  28  79 NW15G22   29.89R WCI  23

$$
OHZ001>008-015>018-024>025-292200-
NORTHWEST OHIO

CITY           SKY/WX    TMP DP  RH WIND       PRES   REMARKS
WAUSEON*       LGT SNOW  34  32  93 NW15      29.81R WCI  24
DEFIANCE       CLOUDY    35  31  85 NW12      29.84R WCI  27
FINDLAY        MIX PCPN  36  33  89 W14       29.79R FOG
TOLEDO EXPRESS LGT SNOW  34  30  86 NW12      29.80R FOG     WCI  25
TOLEDO METCALF LGT SNOW  34  31  88 W15       29.79R FOG     WCI  24
LIMA           CLOUDY    36  32  85 W20G30    29.83R FOG

$$
AND FOR LAKE MICHIGAN COASTAL AND OPEN LAKE BUOY OBSERVATIONS

STATION/POSITION TEMP    WIND        PRES    VSBY  WAVE
                 AIR SEA DIR/SP/G                  HT/PER
                 (F)     (DEG/KT/KT) (MB)    (MI)  (FT/S)
CALUMET HARBOR    34     300/ 10/ 17   N/A
MICHIGAN CITY     33     300/ 24/ 29   N/A
SAINT JOSEPH      33     310/ 19/ 23 1015.2R

$$
&&


USA.gov is the U.S. government's official web portal to all federal, state and local government web resources and services.